Temperature
4 3 3 3 3 4 3 3 2 3 4 4 3 4 4 5 4 4 4 4 5 5 5 5 5 5 6 6 6 6 6 7 7 7 7 8 8 9 9 9 9 9 10 10
3 3 4 4 4 3 3 2 2 3 4 4 2 3 3 4 4 4 4 4 5 5 5 5 5 5 5 6 6 6 6 6 6 6 7 7 8 8 8 9 9 9 9 9
4 4 5 4 4 3 3 2 2 3 3 2 2 2 3 4 4 4 4 4 4 5 5 5 5 5 5 5 5 5 6 6 6 6 6 7 7 7 8 8 8 9 9 9
3 3 4 4 4 3 3 4 3 3 1 1 1 1 2 3 2 3 3 4 4 5 4 4 4 4 4 5 5 5 5 5 5 6 6 6 6 7 7 8 8 8 8 9
3 4 4 4 4 4 3 3 2 2 1 -1 0 -0 2 2 2 3 3 4 4 5 4 4 4 4 4 4 4 4 5 5 5 5 6 6 6 6 7 7 7 8 8 8
3 3 3 4 4 4 3 2 1 -0 -1 -0 0 -0 1 1 2 2 2 4 4 4 4 4 4 4 4 4 4 4 4 5 5 5 5 6 6 6 6 7 7 7 7 8
3 3 3 3 3 3 2 1 1 1 -1 0 1 0 1 2 2 2 2 3 4 4 4 4 4 4 4 4 4 4 4 4 4 5 5 5 6 6 6 6 6 7 7 7
2 3 3 3 3 2 2 1 1 1 0 0 0 0 1 2 2 3 3 3 4 4 4 4 4 4 3 3 3 3 3 4 4 4 5 5 5 6 6 6 6 6 7 7
1 2 3 2 2 2 1 1 1 -1 -2 -2 -1 -1 0 2 2 2 2 3 3 4 4 4 4 3 3 3 3 3 3 3 3 4 4 5 5 5 6 6 6 6 7 7
1 1 1 1 2 2 1 -0 -1 -1 -1 -0 -1 -1 1 1 2 2 1 2 3 4 4 3 3 3 3 3 3 3 3 3 3 3 4 4 5 5 5 5 6 6 6 7
1 0 0 0 1 1 0 -0 -1 -1 -1 -1 -1 1 1 1 1 1 1 2 3 3 3 3 3 3 3 3 3 2 2 3 3 3 3 4 4 4 5 5 5 6 6 6
-0 -1 -1 -0 0 0 0 -1 -1 -1 -2 -3 -2 1 3 1 1 1 1 3 3 3 3 3 3 3 3 3 2 2 2 2 2 3 3 4 4 4 4 5 5 5 6 6
-0 -1 0 1 0 -1 -1 -2 -2 -2 -2 -2 -2 1 2 1 1 2 2 3 3 3 3 3 3 3 2 2 2 2 2 2 2 2 3 3 3 4 4 4 5 5 6 6
1 -1 0 2 2 -1 -2 -2 -2 -2 -2 -2 -1 1 2 2 2 2 2 2 3 2 3 2 2 2 2 2 2 2 2 2 2 2 2 2 3 3 4 4 5 5 5 6
1 -0 -1 -0 1 -0 -0 -0 -1 -2 -1 -1 0 0 2 2 1 1 2 2 2 2 2 2 2 2 2 1 1 1 1 1 2 2 2 2 3 3 3 4 4 5 5 5
-0 -0 -1 -1 0 -0 0 1 0 -0 -0 -1 -0 1 2 2 1 1 1 2 1 2 2 2 2 1 1 1 1 1 1 1 1 2 2 2 3 3 3 4 4 5 5 5
-1 -1 -1 -1 -1 -1 -0 0 0 -0 -1 -1 -0 1 1 0 0 1 1 1 1 2 2 2 1 1 1 1 1 1 1 1 1 1 2 2 2 3 3 4 4 4 5 5
-1 -1 -1 -1 -2 -1 1 0 -0 -0 -0 -1 -0 0 0 0 1 2 2 2 2 2 2 1 1 1 1 1 0 0 0 1 1 1 1 1 2 2 3 3 4 4 4 4
-1 -1 -1 -1 -2 -1 -0 0 -1 -1 -1 -1 -1 -0 -0 1 -0 1 3 2 2 2 1 1 1 1 0 0 0 0 0 0 0 1 1 1 1 2 2 3 3 3 4 4
-2 -1 -1 -2 -2 -1 1 1 -0 -1 -1 -0 -1 -1 -1 -1 -2 0 2 2 2 1 1 1 0 0 0 0 -0 -0 -0 0 0 0 0 1 1 1 2 2 3 3 3 4
-2 -2 -1 -1 -1 -1 0 -0 -0 -0 0 1 1 0 -0 -1 0 2 2 1 1 1 1 0 0 -0 -0 -0 -0 -1 -0 -0 -0 0 0 1 1 1 2 2 2 2 3 3
-2 -3 -3 -2 -2 -0 0 -1 -1 0 2 2 2 2 1 1 2 1 1 1 1 0 0 -0 -0 -0 -1 -1 -1 -1 -1 -1 -0 -0 0 0 1 1 1 2 2 2 3 3
-2 -2 -2 -2 0 1 0 1 2 2 1 2 2 2 1 1 1 1 0 0 0 -0 -0 -0 -1 -1 -1 -1 -1 -1 -1 -1 -1 -1 -0 0 1 1 1 1 2 2 2 2
-3 -3 -3 -3 -2 -1 0 1 1 1 1 2 1 1 1 0 0 0 -0 -0 -0 -0 -1 -1 -1 -1 -1 -1 -1 -2 -2 -2 -1 -1 -1 -0 0 1 1 1 1 1 1 2
-2 -4 -3 -3 -2 -2 -0 1 1 1 1 1 1 0 0 -0 -0 -1 -1 -1 -1 -1 -1 -2 -2 -2 -2 -2 -2 -2 -2 -2 -2 -1 -1 -1 -0 -0 0 1 1 1 1 1
-3 -3 -3 -1 -1 -2 -1 2 1 1 1 0 0 -0 -0 -1 -1 -1 -1 -1 -1 -2 -2 -2 -2 -2 -2 -2 -2 -2 -2 -2 -2 -2 -2 -2 -1 -1 -0 0 1 1 1 2
Wind_Speed
4 3 1 4 5 4 3 5 10 10 6 6 12 18 19 13 9 9 8 9 10 10 9 9 9 10 10 9 9 9 9 8 6 5 4 5 6 5 6 7 9 10 10 10
4 2 4 3 2 3 4 6 8 9 5 7 11 17 15 10 7 7 7 8 9 10 10 10 10 9 9 9 10 9 8 8 7 6 5 5 6 6 7 6 8 10 11 11
4 3 0 2 2 3 5 6 7 9 10 5 8 10 6 5 4 5 6 7 8 9 10 11 11 11 10 10 10 10 9 9 8 6 5 5 5 5 5 6 7 9 11 12
4 4 1 2 3 3 6 6 7 8 7 6 4 7 8 6 7 7 8 7 9 9 9 10 11 12 11 11 10 10 9 9 8 6 5 6 7 8 8 7 7 8 11 12
4 2 2 4 4 4 6 5 5 4 3 4 2 4 10 5 7 8 8 8 9 9 9 10 11 11 12 10 10 9 9 9 8 7 6 6 8 8 7 6 8 8 9 12
5 3 3 4 2 2 2 4 2 3 3 4 4 4 9 5 7 7 6 8 9 10 10 10 10 11 11 10 10 10 10 10 9 8 7 7 9 10 9 8 8 8 7 9
5 3 2 1 1 2 4 5 5 7 4 6 2 5 10 9 7 7 9 10 10 10 10 11 12 12 12 12 12 11 10 11 10 9 9 9 10 10 10 10 9 8 7 8
2 6 2 1 3 2 1 4 4 3 5 7 4 7 9 8 7 7 8 9 9 11 10 11 12 11 12 12 12 11 11 11 11 10 10 10 10 7 8 9 8 9 8 8
5 6 2 1 1 5 3 3 4 3 3 6 7 8 11 6 7 7 7 8 10 11 11 12 12 11 11 12 12 11 11 11 11 11 11 11 10 8 8 8 7 7 7 7
6 5 4 3 1 1 4 6 4 3 3 7 8 7 6 8 9 8 8 9 11 11 11 12 11 11 11 11 11 11 10 11 11 11 10 10 9 9 9 7 7 7 7 7
4 4 4 2 6 7 4 4 4 3 4 4 7 9 7 9 8 9 10 10 11 11 12 12 12 11 11 11 10 10 10 11 11 10 10 11 9 9 8 7 7 7 7 8
5 4 5 8 4 2 6 7 7 5 6 5 5 11 7 8 8 8 10 11 11 11 11 11 12 11 10 10 10 10 11 11 11 10 10 10 9 8 8 7 7 7 8 8
7 4 3 4 2 1 3 5 6 4 3 6 7 12 4 5 8 9 11 12 12 13 12 11 11 11 11 10 10 10 11 11 11 10 9 9 8 8 8 8 7 7 8 9
6 6 9 10 7 5 6 6 7 7 7 9 14 20 20 16 16 16 14 13 12 12 12 11 11 11 11 10 10 11 11 11 11 10 9 9 9 9 8 8 7 7 8 8
5 7 9 12 12 9 12 13 13 16 15 15 17 20 26 21 16 15 14 14 13 13 12 12 12 11 11 11 11 11 11 11 11 10 9 10 10 8 7 6 6 6 6 7
5 6 5 9 10 12 18 20 19 20 18 21 24 26 24 18 13 13 13 13 13 13 13 13 12 11 11 11 11 11 11 11 10 10 10 10 10 8 7 5 4 4 5 5
6 5 3 8 5 7 13 14 15 11 11 12 18 19 15 13 13 12 11 12 12 13 13 12 11 11 11 10 10 11 11 11 10 10 10 10 10 9 7 6 5 4 3 3
8 6 4 4 3 11 9 4 8 11 13 14 15 15 13 14 12 11 11 11 12 11 11 10 10 10 10 9 9 10 10 10 10 10 11 10 10 9 7 6 5 4 3 2
10 8 5 4 6 11 10 5 6 8 10 12 16 17 14 11 8 9 9 8 9 10 10 9 9 9 9 9 9 9 10 10 10 10 11 11 9 9 7 7 6 5 4 3
6 7 7 6 6 9 9 4 4 2 8 8 9 12 10 4 6 10 8 7 9 9 8 8 8 7 8 9 8 8 9 10 10 10 11 10 9 8 8 7 6 4 4 4
5 7 11 11 10 11 8 4 6 4 8 4 5 7 7 6 9 9 9 8 8 8 9 8 7 7 7 7 7 8 9 10 10 10 10 10 9 7 7 7 5 4 4 4
11 9 9 8 9 12 6 8 9 10 4 4 6 6 8 10 11 10 10 10 9 9 8 7 6 7 7 6 6 8 9 10 9 9 9 10 9 7 6 6 5 4 3 4
11 11 8 11 12 6 7 9 7 4 6 7 7 8 8 9 10 10 10 9 9 8 8 6 6 7 7 6 5 7 9 9 9 9 9 9 9 7 6 6 5 4 3 3
7 5 6 8 12 10 9 10 9 9 9 9 8 8 8 9 10 10 9 8 8 7 6 5 5 6 7 7 6 7 9 8 8 9 9 8 8 7 6 5 4 3 3 3
9 8 7 10 9 8 10 11 12 11 9 9 9 8 8 8 9 9 8 8 7 7 6 5 5 6 7 7 7 7 7 8 8 8 8 8 7 7 6 6 4 4 4 4
8 9 10 12 9 8 8 7 7 8 9 9 8 8 7 7 8 8 8 7 6 6 6 6 6 6 7 7 8 8 7 7 7 8 7 6 6 7 6 5 5 6 5 8
Wind_Direction
33 66 223 227 196 204 216 241 270 271 275 289 272 279 286 288 283 281 289 298 302 303 301 306 309 312 312 309 306 296 295 295 290 283 266 259 255 245 238 235 230 223 224 218
38 270 241 213 211 228 234 266 273 286 292 293 285 284 278 274 261 262 279 290 298 306 312 315 315 316 318 314 308 303 299 296 285 273 262 252 260 249 241 240 233 225 223 217
209 246 232 183 250 267 257 237 257 281 314 312 314 298 281 284 266 278 280 285 294 297 304 311 316 317 318 315 308 306 304 298 289 279 278 274 270 262 250 246 239 228 225 218
252 270 260 246 251 216 275 248 258 287 317 303 10 304 285 286 297 291 293 299 298 300 302 309 315 316 312 308 309 305 301 297 294 286 276 265 259 260 254 244 242 236 225 219
262 244 222 243 246 204 247 288 283 285 242 296 276 247 285 303 288 288 292 297 300 299 300 303 305 305 305 307 309 306 304 307 305 297 282 273 265 263 260 244 238 235 231 221
258 259 224 231 278 208 282 340 11 54 69 294 244 211 283 260 249 281 290 298 301 304 304 303 303 305 308 313 313 312 313 312 307 299 292 275 270 268 260 249 242 239 235 225
313 284 243 187 5 23 49 44 1 351 352 261 255 242 256 259 247 255 279 292 299 303 308 311 313 313 314 316 315 315 313 310 311 308 299 287 274 267 256 248 243 243 236 228
301 289 239 188 178 186 149 129 146 258 273 293 295 252 258 265 272 266 271 283 299 306 308 307 307 309 310 311 311 311 311 309 311 310 305 293 282 269 258 247 242 240 238 231
194 261 304 227 223 148 144 173 161 160 287 284 273 280 296 274 285 283 284 295 300 302 304 306 309 309 309 310 306 304 305 308 309 308 307 297 285 275 269 262 253 245 244 237
168 253 280 307 96 167 163 148 113 144 268 281 286 272 262 281 283 292 293 293 295 300 303 306 308 306 303 302 303 304 304 305 304 306 305 304 291 279 272 259 253 251 245 245
157 202 294 314 203 192 146 154 160 171 192 224 282 274 231 243 261 275 283 286 292 298 301 302 304 303 302 306 308 308 310 310 310 309 308 306 297 289 278 259 251 247 243 244
174 166 256 250 244 189 183 188 165 190 233 216 250 273 255 242 258 271 284 292 298 299 300 299 301 304 308 310 312 314 315 314 311 310 309 307 300 296 287 272 260 246 242 245
157 164 288 316 337 156 214 207 193 187 196 217 238 267 279 291 294 288 291 298 302 305 304 305 307 309 309 310 311 315 316 314 313 315 313 310 308 295 286 281 268 255 245 243
161 189 211 235 242 197 227 226 201 193 224 242 240 262 282 291 294 297 296 296 299 300 302 305 308 309 309 309 310 312 313 316 320 323 320 312 309 302 289 283 274 261 250 242
174 230 236 253 262 254 249 246 223 221 226 241 259 264 274 281 284 289 291 295 300 300 302 304 306 307 310 312 314 315 316 319 322 325 321 314 310 305 301 289 277 266 257 247
189 236 246 265 255 257 266 257 243 239 239 244 260 270 271 278 281 283 286 291 295 294 297 301 305 309 312 313 314 316 317 319 324 326 322 323 326 319 315 305 295 284 269 253
194 202 242 272 284 295 266 244 231 226 219 222 246 258 277 286 284 284 288 289 287 289 293 298 303 305 307 309 312 315 316 320 324 324 328 329 328 323 320 316 311 299 282 261
191 192 222 270 313 254 250 208 211 229 244 231 244 260 270 270 281 282 275 273 280 285 290 295 300 303 306 309 315 318 321 324 325 327 328 329 327 322 321 322 318 315 303 286
197 195 212 227 253 272 281 239 197 216 262 237 241 259 267 278 299 289 270 258 266 274 280 285 290 295 304 310 317 322 326 328 329 330 327 328 326 322 324 325 322 325 325 306
184 193 209 213 233 253 256 223 184 146 278 252 226 249 266 291 301 293 293 281 278 281 284 289 297 303 308 312 321 325 324 328 326 322 321 322 323 320 320 318 316 321 319 305
167 198 217 226 241 261 252 188 136 198 253 258 218 241 249 237 248 276 296 291 285 286 290 295 299 300 300 310 321 321 320 320 317 318 318 321 323 319 318 320 317 322 323 322
184 188 201 201 224 250 205 153 192 226 257 266 260 254 254 260 274 285 289 289 292 295 298 300 300 299 304 313 320 316 313 313 319 321 318 319 321 321 328 326 321 328 332 331
202 196 193 201 222 244 184 205 229 240 258 264 264 269 267 273 280 286 288 288 290 291 295 298 293 298 306 312 313 308 309 317 322 324 323 322 322 321 326 325 323 331 342 329
231 204 206 242 255 254 253 260 264 256 254 262 264 270 268 268 278 284 286 289 292 292 294 302 304 303 306 313 312 303 310 316 320 323 322 323 325 326 328 325 322 324 322 315
212 189 215 248 265 279 262 249 253 258 259 263 267 266 265 268 276 278 282 285 287 292 297 299 293 293 298 309 310 312 315 320 321 321 320 324 326 325 324 321 317 310 289 297
202 197 209 242 238 228 255 256 249 251 259 263 269 276 273 261 270 277 278 279 284 290 296 300 297 298 300 305 306 311 315 317 317 319 319 321 322 323 319 318 324 324 313 323
Height
1493 1497 1498 1496 1497 1497 1498 1500 1499 1490 1483 1483 1476 1468 1458 1454 1454 1451 1448 1446 1443 1439 1437 1434 1431 1427 1424 1421 1419 1417 1414 1411 1410 1408 1407 1407 1408 1408 1410 1411 1412 1414 1417 1419
1497 1497 1493 1493 1494 1495 1497 1499 1497 1487 1481 1480 1474 1465 1455 1451 1449 1448 1446 1443 1440 1437 1433 1430 1427 1424 1420 1416 1413 1410 1408 1406 1404 1403 1401 1401 1401 1402 1403 1403 1405 1407 1409 1411
1494 1493 1491 1492 1493 1494 1493 1495 1492 1489 1482 1479 1478 1463 1454 1448 1446 1445 1443 1440 1438 1435 1431 1427 1424 1420 1416 1413 1410 1407 1404 1401 1399 1398 1396 1395 1396 1395 1396 1396 1397 1398 1401 1404
1493 1491 1491 1491 1491 1492 1492 1487 1487 1486 1490 1489 1485 1478 1455 1449 1446 1442 1439 1437 1435 1432 1429 1425 1421 1417 1413 1410 1406 1403 1400 1397 1394 1393 1392 1390 1389 1388 1388 1389 1390 1391 1393 1396
1491 1490 1490 1490 1488 1488 1488 1485 1486 1486 1489 1494 1487 1488 1459 1452 1447 1440 1437 1435 1433 1430 1427 1424 1419 1415 1411 1407 1402 1398 1394 1391 1388 1386 1385 1384 1383 1382 1382 1383 1384 1385 1386 1388
1490 1488 1488 1487 1485 1486 1486 1486 1486 1491 1494 1496 1484 1486 1464 1453 1445 1439 1435 1433 1430 1428 1424 1421 1417 1412 1407 1402 1398 1393 1389 1386 1384 1382 1380 1378 1377 1376 1375 1376 1377 1377 1378 1380
1490 1487 1485 1485 1486 1486 1488 1493 1496 1495 1501 1491 1480 1479 1461 1442 1438 1437 1434 1431 1428 1425 1422 1417 1412 1408 1403 1398 1393 1389 1385 1381 1378 1376 1374 1373 1371 1369 1368 1368 1369 1370 1370 1372
1494 1490 1485 1485 1485 1488 1490 1493 1501 1502 1500 1488 1480 1473 1451 1438 1434 1432 1431 1429 1426 1422 1419 1415 1410 1406 1401 1396 1390 1386 1381 1377 1373 1370 1368 1366 1364 1362 1362 1362 1362 1362 1363 1365
1496 1491 1484 1484 1484 1486 1491 1494 1495 1504 1507 1505 1482 1469 1449 1435 1432 1429 1428 1426 1423 1420 1416 1412 1408 1403 1398 1393 1387 1382 1377 1373 1369 1365 1362 1360 1358 1356 1355 1354 1355 1355 1356 1359
1490 1492 1486 1485 1484 1485 1487 1492 1500 1503 1504 1496 1481 1472 1454 1437 1431 1428 1426 1423 1420 1417 1414 1409 1405 1400 1395 1390 1384 1379 1374 1368 1364 1360 1357 1354 1351 1350 1349 1349 1348 1349 1350 1352
1488 1493 1489 1487 1484 1484 1489 1492 1493 1498 1499 1499 1486 1457 1437 1434 1428 1427 1423 1420 1417 1413 1410 1406 1401 1396 1391 1386 1380 1374 1369 1364 1359 1354 1351 1348 1345 1344 1343 1343 1343 1343 1345 1346
1487 1492 1492 1486 1481 1480 1482 1484 1490 1494 1495 1497 1491 1453 1428 1427 1424 1423 1420 1417 1414 1410 1406 1402 1397 1392 1387 1381 1376 1370 1364 1359 1354 1350 1346 1342 1340 1338 1338 1337 1337 1338 1339 1341
1484 1490 1488 1478 1484 1484 1483 1483 1484 1485 1488 1489 1481 1447 1424 1424 1422 1420 1417 1413 1410 1406 1402 1398 1393 1388 1383 1378 1372 1367 1361 1356 1351 1346 1342 1339 1336 1334 1333 1332 1332 1333 1334 1336
1477 1483 1481 1472 1468 1475 1479 1479 1480 1482 1480 1475 1462 1439 1424 1422 1420 1416 1414 1410 1406 1403 1399 1394 1390 1385 1380 1375 1369 1364 1358 1353 1347 1343 1339 1336 1332 1329 1328 1327 1327 1328 1329 1329
1474 1475 1475 1469 1466 1468 1466 1465 1469 1470 1464 1460 1442 1436 1421 1417 1416 1413 1409 1405 1402 1398 1394 1390 1386 1382 1377 1371 1366 1361 1356 1351 1346 1341 1336 1332 1328 1325 1323 1322 1322 1322 1323 1324
1470 1470 1470 1466 1461 1461 1456 1450 1451 1451 1450 1446 1438 1428 1414 1413 1411 1408 1405 1402 1398 1394 1390 1386 1382 1378 1373 1368 1363 1358 1354 1348 1343 1338 1334 1329 1325 1322 1320 1319 1318 1318 1319 1320
1467 1468 1469 1463 1460 1458 1449 1436 1436 1437 1434 1435 1431 1418 1410 1410 1407 1404 1400 1397 1394 1390 1386 1383 1379 1375 1370 1365 1360 1355 1351 1346 1341 1336 1332 1328 1325 1322 1320 1318 1316 1315 1316 1317
1461 1464 1464 1462 1463 1456 1429 1425 1425 1426 1423 1422 1417 1411 1408 1405 1401 1399 1396 1393 1389 1387 1383 1380 1376 1371 1367 1362 1358 1353 1349 1344 1339 1335 1330 1327 1323 1320 1318 1316 1314 1313 1313 1314
1451 1456 1459 1460 1460 1444 1427 1421 1422 1424 1418 1411 1410 1406 1403 1401 1398 1393 1391 1389 1386 1384 1381 1377 1374 1370 1365 1360 1356 1351 1347 1343 1338 1334 1330 1326 1323 1320 1317 1314 1313 1311 1311 1312
1448 1450 1454 1455 1454 1442 1420 1416 1415 1419 1416 1402 1402 1401 1399 1399 1400 1390 1386 1385 1382 1379 1377 1374 1370 1367 1362 1358 1354 1350 1346 1341 1337 1333 1329 1326 1323 1320 1317 1314 1312 1311 1311 1311
1448 1449 1447 1446 1443 1428 1413 1412 1415 1421 1408 1398 1396 1396 1395 1395 1393 1387 1384 1381 1379 1376 1373 1370 1367 1364 1360 1356 1352 1348 1344 1340 1337 1333 1329 1325 1323 1320 1317 1314 1313 1311 1310 1310
1436 1441 1442 1440 1438 1423 1405 1409 1409 1401 1395 1394 1393 1392 1391 1388 1386 1383 1380 1378 1375 1372 1369 1367 1363 1360 1358 1354 1350 1347 1343 1339 1335 1332 1329 1325 1322 1319 1317 1314 1313 1312 1311 1310
1423 1420 1420 1419 1410 1400 1398 1397 1394 1394 1393 1391 1389 1388 1387 1384 1382 1379 1377 1374 1372 1369 1366 1363 1360 1357 1354 1352 1349 1345 1341 1337 1333 1330 1327 1324 1321 1319 1316 1314 1312 1311 1311 1310
1413 1411 1413 1410 1399 1395 1394 1392 1391 1390 1388 1386 1386 1384 1383 1380 1377 1375 1373 1370 1368 1365 1363 1360 1357 1354 1351 1349 1346 1343 1339 1336 1332 1328 1325 1323 1320 1317 1315 1314 1312 1311 1311 1310
1402 1405 1405 1401 1393 1391 1386 1385 1384 1384 1383 1381 1380 1379 1378 1375 1373 1371 1369 1366 1364 1362 1359 1357 1354 1351 1348 1346 1343 1341 1337 1334 1330 1327 1324 1321 1318 1316 1314 1313 1312 1311 1311 1311
1392 1394 1395 1388 1383 1384 1380 1379 1379 1378 1377 1376 1375 1373 1372 1371 1369 1367 1365 1362 1360 1358 1355 1353 1350 1348 1345 1343 1340 1338 1335 1332 1328 1325 1323 1320 1317 1315 1314 1312 1311 1310 1310 1310